Location: Alando
(42.3054°N, 9.2895°E)
Time: 03:27:55
(UTC+00:00)

Cosmos 2360 Rocket - Pass Details

Date: 09 April 2020
Orbit: 834 x 845 km, 71.0° (Epoch: 02 June)

Event Time Altitude Azimuth Distance (km) Brightness Sun altitude
Rises 23:14:47 0° 338° (NNW) 3,392 6.1 -39.6°
Reaches altitude 10° 23:17:16 10° 341° (NNW) 2,455 5.2 -39.6°
Enters shadow 23:19:26 24° 347° (NNW) 1,674 4.2 -39.6°
